Regional Weather Roundup
Issued by NWS State College, PA

Home | Current Version | Previous Version | Text Only | Print | Product List | Glossary On
Versions: 1 2 3 4 5 6 7 8 9 10 11 12 13 14 15 16 17 18 19 20 21 22 23 24 25 26 27 28 29 30 31 32 33 34 35 36 37 38 39 40 41 42 43 44 45 46 47 48 49 50
000
ASUS41 KCTP 291503
RWRCTP

REGIONAL WEATHER ROUNDUP
NATIONAL WEATHER SERVICE STATE COLLEGE PA
1000 AM EST THU JAN 29 2015

Note: "fair" indicates few or no clouds below 12,000 feet with no
significant weather and/or obstructions to visibility.

* = STATION THAT DOES NOT REPORT PRECIPITATION /E.G. RAIN...SNOW...ETC/
    THUNDER OR FOG.

PAZ002>004-007>009-013>016-020>023-029>032-291600-
WESTERN PENNSYLVANIA

CITY           SKY/WX    TMP DP  RH WIND       PRES   REMARKS
ERIE           FRZ RAIN  32  11  41 S21G33    29.84F
MEADVILLE      CLOUDY    28   7  41 VRB7G18   29.87F
FRANKLIN*      CLOUDY    28   7  40 SE12      29.94F
NEW CASTLE     CLOUDY    27  11  51 SE8       29.93F
BEAVER COUNTY  CLOUDY    28  12  50 SE9       29.93F
BUTLER*        CLOUDY    28  10  47 SE9       29.96F
PITTSBURGH INT CLOUDY    28  14  55 SE12      29.94F
PITTSBURGH     CLOUDY    27  13  55 S8        29.95F
INDIANA*       CLOUDY    32   9  37 S12G20    30.04F
LATROBE        CLOUDY    37   9  30 S9        30.01F
WASHINGTON CO* CLOUDY    28  16  59 S8        29.96F
$$

PAZ004>006-010>012-017>019-024>028-033>037-041-042-045-046-049>053-291600-
CENTRAL PENNSYLVANIA

CITY           SKY/WX    TMP DP  RH WIND       PRES   REMARKS
BRADFORD       CLOUDY    26   0  32 S13G21    29.97F WCI  15
DUBOIS         CLOUDY    24   4  42 SE13      29.99F WCI  12
CLEARFIELD     CLOUDY    16   6  65 NE9       30.08F WCI   4
JOHNSTOWN      CLOUDY    27   4  37 SE18      29.99F WCI  14
ALTOONA        CLOUDY    21   9  59 VRB3      30.12F
STATE COLLEGE  CLOUDY    12   7  79 CALM      30.14F
WILLIAMSPORT   CLOUDY    11   2  67 E3        30.25F
SELINSGROVE    CLOUDY    14   7  73 CALM      30.28S
FT INDIANTOWN  CLOUDY    19   6  56 E5        30.28S WCI  12
CAPITAL CITY   CLOUDY   N/A N/A N/A E3        30.29S
HARRISBURG     CLOUDY    20   8  60 E5        30.28F WCI  13
YORK           CLOUDY    20  13  74 CALM      30.26F
$$

PAZ038>040-043-044-047-048-054-055-060>062-067>071-291600-
EASTERN PENNSYLVANIA

CITY           SKY/WX    TMP DP  RH WIND       PRES   REMARKS
SCRANTON       MOSUNNY   15   5  64 NE3       30.21F
MOUNT POCONO   MOSUNNY   23  -2  33 SE7       30.17R WCI  15
ALLENTOWN      FAIR      17   4  56 NE8       30.29F WCI   7
QUAKERTOWN*    MOSUNNY   23   5  46 E3        30.29S
READING        PTSUNNY   19   6  57 CALM      30.29S
LANCASTER      CLOUDY    17   8  67 CALM      30.28F HAZE
COATESVILLE    PTSUNNY   27   7  43 SE6       30.27S
POTTSTOWN      PTSUNNY   22   4  46 E3        30.30F
BLUE BELL      MOSUNNY   28  10  47 E3        30.30S
DOYLESTOWN     MOSUNNY   23   4  44 N3        30.29S
WILLOW GROVE   NOT AVBL
NORTH PHILA    MOSUNNY   27   3  35 E5        30.34S
PHILADELPHIA   PTSUNNY   29   6  38 E8        30.33S
$$


USA.gov is the U.S. government's official web portal to all federal, state and local government web resources and services.